Location: Gajan
(43.0218°N, 1.1244°E)
Time: 08:22:11
(UTC+00:00)

Cosmos-2242 - Pass Details

Date: 22 April 2021
Orbit: 589 x 618 km, 82.5° (Epoch: 07 May)

Event Time Altitude Azimuth Distance (km) Brightness Sun altitude
Exits shadow 21:12:34 18° 221° (SW) 1,495 4.9 -23.4°
Maximum altitude 21:15:21 40° 283° (WNW) 902 4.2 -23.7°
Drops below altitude 10° 21:19:26 10° 353° (N) 1,951 6.3 -24.2°
Sets 21:21:45 0° 1° (N) 2,853 7.2 -24.5°
